Location: Unspecified
(0.0000°N, 0.0000°E)
Time: 12:53:24
(UTC+00:00)

Envisat - Pass Details

Date: 18 June 2021
Orbit: 764 x 766 km, 98.1° (Epoch: 18 June)

Event Time Altitude Azimuth Distance (km) Brightness Sun altitude
Rises 05:31:46 0° 356° (N) 3,213 6.5 -6.7°
Reaches altitude 10° 05:34:14 10° 347° (NNW) 2,290 5.6 -6.2°
Maximum altitude 05:38:48 35° 282° (WNW) 1,222 3.7 -5.1°
Drops below altitude 10° 05:43:23 10° 217° (SW) 2,300 5.0 -4.1°
Sets 05:45:52 0° 208° (SSW) 3,229 5.8 -3.5°
